Terminal Aerodrome Forecast
Issued by NWS

Home | Current Version | Previous Version | Text Only | Print | Product List | Glossary On
Versions: 1 2 3 4 5 6 7 8 9 10 11 12 13 14 15 16 17 18 19 20 21 22 23 24 25 26 27 28 29 30 31 32 33 34 35 36 37 38 39 40 41 42 43
000
FTUS45 KVEF 041440 AAA
TAFLAS
TAF AMD
KLAS 041440Z 0415/0512 17010KT P6SM FEW120
     FM041800 19018G26KT P6SM FEW120
     FM050700 19011KT P6SM FEW150=

USA.gov is the U.S. government's official web portal to all federal, state and local government web resources and services.